Location: Boncourt
(49.6160°N, 3.9448°E)
Time: 18:49:51
(UTC+00:00)

Cosmos 1461 - Pass Details

Date: 09 February 2023
Orbit: 492 x 644 km, 65.0° (Epoch: 26 March)

Event Time Altitude Azimuth Distance (km) Brightness Sun altitude
Rises 17:47:23 0° 240° (WSW) 2,782 8.0 -9.3°
Reaches altitude 10° 17:49:41 10° 248° (WSW) 1,913 7.1 -9.7°
Maximum altitude 17:53:46 40° 319° (NW) 900 4.2 -10.3°
Drops below altitude 10° 17:58:04 10° 30° (NNE) 2,008 5.3 -11.0°
Enters shadow 17:59:07 - 34° (NE) 2,401 5.7 -11.2°
